Location: Unspecified
(48.8656°N, 0.0000°E)
Time: 22:16:19
(UTC+00:00)

Vanguard 3 - Pass Details

Date: 23 June 2019
Orbit: 508 x 3262 km, 33.3° (Epoch: 12 October)

Event Time Altitude Azimuth Distance (km) Brightness Sun altitude
Rises 10:46:46 0° 225° (SW) 6,536 11.8 60.5°
Reaches altitude 10° 10:52:39 10° 215° (SW) 5,071 11.5 61.1°
Maximum altitude 11:02:32 25° 169° (S) 3,091 11.0 62.0°
Drops below altitude 10° 11:09:16 10° 119° (ESE) 3,336 10.8 62.5°
Sets 11:12:11 0° 105° (ESE) 3,954 10.9 62.7°
